Location: Goheenville
(40.9070°N, 79.3720°W)
Time: 01:28:31
(UTC-04:00)

Daily predictions for brighter satellites

Satellite Brightness Start Highest point End
(mag) Time Altitude Azimuth Time Altitude Azimuth Time Altitude Azimuth
CENTAUR R/B 4.1 02:56:30 30° NE 02:56:30 30° NE 02:59:49 10° NE
SL-16 R/B 3.8 03:33:25 34° N 03:33:25 34° N 03:36:47 10° N
ARIANE 5 R/B 4.5 03:31:49 10° NNE 03:34:01 26° NNE 03:34:01 26° NNE
Cosmos 2322 Rocket 3.4 03:58:56 36° N 03:58:56 36° N 04:02:15 10° NNE
SL-16 R/B 3.3 04:04:10 38° N 04:04:10 38° N 04:07:43 10° NNE
Resurs 1-4 Rocket 3.4 04:05:17 10° N 04:08:11 33° N 04:08:11 33° N
COSMOS 2428 4.3 04:09:53 24° ESE 04:11:08 27° ESE 04:15:47 10° NE
CZ-2D R/B 3.2 04:07:25 10° N 04:10:47 38° N 04:10:47 38° N
Okean O Rocket 3.8 04:12:23 10° NE 04:15:47 21° E 04:16:33 20° ESE
FALCON 9 R/B 4.3 04:17:39 51° WSW 04:21:23 64° S 05:03:54 10° ESE
Lacrosse 4 Rocket 4.2 04:26:46 11° SE 04:26:46 11° SE 04:27:00 10° SE
Cosmos 2184 Rocket 4.3 04:19:12 10° N 04:25:22 64° E 04:28:01 35° SSE
Cosmos 2360 Rocket 2.3 04:27:51 73° NE 04:27:51 73° NE 04:33:00 10° NNE
Cosmos 1455 Rocket 4.3 04:23:18 10° N 04:26:43 40° NE 04:26:43 40° NE
Cosmos 1980 Rocket 4.2 04:30:15 15° NNW 04:30:15 15° NNW 04:32:29 10° N
ADEOS II 3.7 04:29:45 10° NE 04:34:25 31° E 04:37:45 16° SSE
ADEOS Rocket 3.3 04:32:58 10° N 04:37:12 44° NNW 04:37:12 44° NNW
Cosmos 1340 4.2 04:44:17 34° NNE 04:44:17 34° NNE 04:46:38 10° NNE
CENTAUR R/B 3.8 04:43:40 26° NW 04:44:28 27° NW 04:50:16 10° NNE
ATLAS 5 CENTAUR R/B 4.4 04:40:06 10° NNW 04:44:58 26° NE 04:50:11 10° E
USA 215 3.6 04:42:08 10° ESE 04:48:37 65° NE 04:55:05 10° NW
SL-08 ROCKET BODY 4.2 04:43:39 10° NNW 04:49:21 68° W 04:49:21 68° W
Cosmos 1536 Rocket 3.8 04:53:01 67° ESE 04:53:14 68° E 04:57:43 10° NNE
Cosmos 2333 Rocket 3.9 04:53:57 10° SSE 04:58:48 30° ESE 05:03:41 10° NE
Cosmos 2154 Rocket 4.4 04:53:11 10° N 04:59:21 63° E 05:05:28 10° SSE
Cosmos 1743 4.0 04:57:23 10° N 05:01:04 40° ENE 05:04:42 10° SSE
Cosmos 2322 3.8 05:04:46 54° W 05:05:25 57° WNW 05:11:05 10° NNE
PSLV R/B 4.3 05:02:18 10° NNE 05:06:32 51° E 05:08:52 25° SSE
CZ-4B R/B 2.8 05:04:30 10° NNE 05:08:01 71° E 05:08:01 71° E
Cosmos 2327 Rocket 4.5 05:04:59 10° NNW 05:11:08 59° W 05:13:53 33° SSW
Meteor 1-18 Rocket 4.3 05:12:25 49° W 05:12:59 51° WNW 05:18:27 10° N
ARIANE 5 R/B 4.3 05:12:11 10° NNW 05:14:22 17° NW 05:14:22 17° NW
EO 1 Del DPAF 3.3 05:13:26 13° SSE 05:16:52 75° ENE 05:20:44 10° N
Cosmos 1610 Rocket 4.4 05:11:46 10° NNW 05:18:01 71° W 05:24:18 10° S
Meteor 1-12 Rocket 4.3 05:13:37 10° NNW 05:19:09 55° W 05:22:22 25° SSW
Nadezhda 1 Rocket 3.9 05:16:39 35° SSW 05:19:11 63° W 05:25:12 10° N
Meteor 2-13 Rocket 4.4 05:15:47 10° NNW 05:21:49 58° W 05:27:43 10° S
Cosmos 2333 4.1 05:21:51 31° SSW 05:24:38 86° WNW 05:30:23 10° NNE
Cosmos 1844 4.1 05:19:39 10° NNW 05:25:24 65° ENE 05:31:03 10° SE
Cosmos 1570 Rocket 4.0 05:24:16 41° SW 05:25:58 64° WNW 05:31:11 10° NNE
Meteor 1-13 Rocket 4.1 05:23:37 15° S 05:28:11 90° E 05:33:49 10° N
Cosmos 1898 Rocket 4.3 05:23:27 10° N 05:28:32 52° ENE 05:33:34 10° SE
BREEZE M DEB (TANK) 4.1 05:18:57 10° WNW 05:32:25 59° NNE 05:36:26 10° E
CZ-4B DEB 4.1 05:27:26 10° NNE 05:33:02 80° WNW 05:37:41 15° SSW
MOS 1 Rocket 3.8 05:28:55 10° N 05:33:12 35° WNW 05:33:35 35° W
CZ-4B R/B 3.2 05:27:56 10° NNE 05:33:36 80° WNW 05:38:17 15° SSW
Tiangong 2 1.2 05:34:35 57° S 05:34:35 57° S 05:37:26 10° ESE
IRS-P2 Rocket 4.5 05:30:20 10° NNE 05:35:35 87° WNW 05:40:28 12° SSW
Cosmos 2341 Rocket 3.9 05:33:49 10° N 05:40:06 85° W 05:46:18 10° S
Cosmos 2322 Rocket 4.2 05:40:45 11° NW 05:41:46 12° NW 05:43:48 10° NNW
Cosmos 1238 Rocket 2.2 05:42:00 50° WNW 05:42:00 50° WNW 05:44:44 10° N
IRS-1C Rocket 4.1 05:37:22 10° N 05:42:33 60° WNW 05:46:22 18° SSW
ERS-2 2.7 05:40:36 10° NNE 05:44:16 59° ESE 05:47:54 10° S
Cosmos 1980 4.3 05:38:49 10° S 05:44:20 57° ESE 05:49:52 10° NNE
IRAS Rocket 4.2 05:41:19 10° N 05:46:50 69° WNW 05:52:15 11° SSW
SL-16 R/B 4.2 05:46:02 11° WNW 05:47:20 11° NW 05:49:05 10° NNW
CZ-2C R/B 3.8 05:47:09 10° S 05:51:38 53° W 05:56:04 10° NNW
Okean O Rocket 2.3 05:48:10 10° N 05:52:13 35° WNW 05:54:02 25° WSW
SL-8 R/B 4.5 05:48:52 12° NW 05:53:07 49° NNE 05:57:45 10° E
Cosmos 2219 Rocket 2.1 05:48:29 14° SSW 05:53:18 77° WNW 05:58:55 10° NNE
COSMOS 2428 3.1 05:51:56 23° WSW 05:55:08 43° WNW 06:00:34 10° NNE
Cosmos 1937 Rocket 3.9 05:52:32 10° NNW 05:57:51 69° ENE 06:03:07 10° SSE
Cosmos 1025 Rocket 3.0 05:53:51 10° S 05:58:13 89° W 06:02:38 10° N
Meteor 2-9 Rocket 4.2 05:52:54 10° N 05:58:37 87° W 06:04:07 10° S
NOSS 0 Rocket 4.0 05:54:24 10° SSW 06:00:35 84° ESE 06:06:47 10° NNE
Cosmos 1844 Rocket 2.8 05:55:30 10° NW 06:00:51 49° WSW 06:06:11 10° S
Meteor 1-23 Rocket 4.3 05:55:35 10° S 06:01:23 88° ESE 06:07:12 10° N
Lacrosse 4 Rocket 3.2 06:03:24 15° SW 06:03:24 15° SW 06:04:36 10° SSW
Cosmos 1437 3.2 05:59:56 10° S 06:03:10 64° E 06:06:26 10° NNE
Okean-O 2.6 06:01:37 10° NNE 06:06:05 89° ESE 06:10:31 10° SSW
DELTA 2 R/B (1) 3.6 06:02:43 19° W 06:06:44 78° S 06:12:17 10° E
Cosmos 841 Rocket 4.4 06:03:56 10° S 06:08:54 50° ESE 06:13:52 10° NNE
Cosmos 1892 Rocket 4.2 06:04:40 10° S 06:08:55 59° E 06:13:14 10° NNE
NOAA 6 4.5 06:06:35 10° NNE 06:11:41 64° ESE 06:16:45 10° S
Cosmos 2360 Rocket 3.9 06:09:38 13° WNW 06:12:03 17° NW 06:15:35 10° N
USA 116 4.0 06:07:56 10° S 06:12:06 63° W 06:16:51 10° NNW
EXPRESS MD2 4.3 06:07:37 10° SW 06:12:27 39° SSE 06:15:12 10° ENE
Cosmos 2285 Rocket 4.0 06:06:19 10° SSW 06:12:43 71° WNW 06:19:10 10° NNE
ADEOS II 2.8 06:09:26 10° N 06:14:05 32° WNW 06:18:42 10° SW
Cosmos 2278 Rocket 2.2 06:10:50 10° NNW 06:16:33 88° WSW 06:22:12 10° SSE
Cosmos 2298 Rocket 4.0 06:11:57 10° NNW 06:17:15 66° WSW 06:22:30 10° S
Cosmos 1814 Rocket 3.9 06:14:25 10° SSW 06:19:37 74° WNW 06:24:47 10° NNE
Cosmos 1959 Rocket 4.4 06:14:51 10° N 06:20:58 80° W 06:27:06 10° S
Cosmos 2237 Rocket 2.2 06:15:32 10° SSW 06:21:13 78° WNW 06:26:57 10° NNE
Cosmos 1441 Rocket 4.0 06:18:26 10° S 06:22:18 58° E 06:26:15 10° NNE
Aureole 2 Rocket 2.5 06:21:08 10° SSW 06:24:43 56° WNW 06:28:03 10° N
Meteor 1-15 Rocket 4.3 06:20:54 10° NNW 06:26:48 70° W 06:32:41 10° S
Cosmos 1515 4.0 06:23:19 10° S 06:27:08 72° E 06:31:00 10° NNE
Meteor 2-4 Rocket 4.0 06:22:11 10° SSW 06:27:29 43° WNW 06:32:41 10° N
Cosmos 405 Rocket 3.0 06:24:34 10° SSW 06:28:32 51° WNW 06:32:28 10° N
Cosmos 371 Rocket 3.6 06:23:52 10° S 06:28:42 72° ESE 06:33:34 10° NNE
Cosmos 1666 3.8 06:26:02 10° NW 06:29:14 25° W 06:32:25 10° SW
ATLAS 5 CENTAUR R/B 2.4 06:24:10 10° NW 06:30:12 72° WSW 06:36:44 10° SSE
USA 215 3.8 06:25:53 10° SSE 06:31:49 36° SW 06:37:47 10° WNW
Okean 2 3.6 06:28:12 10° SSW 06:32:14 50° W 06:36:20 10° N
Cosmos 332 Rocket 3.8 06:27:29 10° SSW 06:32:23 80° WNW 06:37:19 10° NNE
Cosmos 2366 rocket 4.0 06:28:06 10° NNW 06:34:26 72° W 06:40:44 10° S
CZ-3A R/B 1.1 06:35:50 12° WNW 06:36:43 19° NNW 06:38:21 10° NNE
Cosmos 1346 3.3 06:34:17 10° S 06:37:06 67° E 06:39:56 10° NNE
Cosmos 2333 Rocket 2.8 06:37:33 10° SW 06:42:52 40° WNW 06:48:16 10° N
SKYMED 2 3.5 06:39:36 10° S 06:43:56 73° W 06:48:17 10° NNW
Cosmos 2058 Rocket 3.1 06:40:06 10° NNW 06:44:35 71° W 06:48:59 10° S
Cosmos 1867 3.9 06:40:05 10° NW 06:45:15 45° WSW 06:50:23 10° S
USA 229 DEB 4.2 06:39:28 10° WSW 06:45:58 44° NW 06:52:37 10° NNE
USA 229 4.2 06:39:34 10° WSW 06:46:04 45° NW 06:52:43 10° NNE
